User: anonymous
Location: Raleigh
(35.7720°N, 78.6390°W)
Time: 21:10:02
(UTC-04:00)
Language:

JAS-2 - Orbit

View from above orbital plane
View from above orbital plane
View from above satellite
View from above satellite

Ground track
Ground track

The orbit data is extracted from the following two-line orbital elements,

1 24278U 96046B   14238.09992733 -.00000005  00000-0  27744-4 0  4492
2 24278 098.5142 242.3111 0351564 116.2187 288.9718 13.53027812890123
Epoch (UTC): 26 August 2014 02:23:53
Eccentricity: 0.0351564
inclination: 98.5142°
perigee height: 799 km
apogee height: 1322 km
right ascension of ascending node: 242.3111°
argument of perigee: 116.2187°
revolutions per day: 13.53027812
mean anomaly at epoch: 288.9718°
orbit number at epoch: 89012

The dashed part of the orbit path shows where the satellite is in the earth's shadow,  

DLR